Location: Newark
(30.1000°N, 109.4667°E)
Time: 01:10:38
(UTC+00:00)

Vanguard 2 Rocket - Pass Details

Date: 20 February 2020
Orbit: 554 x 3326 km, 32.9° (Epoch: 08 April)

Event Time Altitude Azimuth Distance (km) Brightness Sun altitude
Rises 13:49:32 0° 256° (WSW) 7,106 12.1 -42.8°
Reaches altitude 10° 13:54:43 10° 257° (WSW) 5,846 11.5 -43.9°
Enters shadow 14:09:33 70° 270° (W) 2,297 8.7 -46.9°
